Location: Zagreb
(45.8000°N, 16.0000°E)
Time: 02:04:36
(UTC+02:00)

Transit 2A Rocket - Pass Details

Date: 31 January 2022
Orbit: 592 x 909 km, 66.7° (Epoch: 26 May)

Event Time Altitude Azimuth Distance (km) Brightness Sun altitude
Rises 18:26:20 0° 239° (WSW) 3,508 9.8 -15.2°
Reaches altitude 10° 18:29:02 10° 247° (WSW) 2,586 9.0 -15.6°
Maximum altitude 18:34:38 38° 314° (NW) 1,366 6.6 -16.6°
Drops below altitude 10° 18:40:13 10° 22° (NNE) 2,571 7.4 -17.5°
Enters shadow 18:41:05 - 25° (NNE) 2,862 7.6 -17.7°
Sets 18:42:54 0° 30° (NNE) 3,485 - -18.0°
